Powrót do katalogu

CZ-6A DEB

AktywnyLEO
NORAD 100175·DEBRIS·🇨🇳 China

Wystrzelony Jul 30, 2026 z Taiyuan Satellite Launch Center

Loading…

Następne Przeloty (najbliższe 24 godziny)

TLE

ŚwieżeSource: Space-Track

Epoka: Sep 14, 2026, 13:20 UTC

1 A0175U 26173B   26257.55563734 -.00000355  00000-0 -61233-3 0  9995
2 A0175  64.7883 165.7466 0005534 239.4622 120.5861 13.27995776  6185

Śledź CZ-6A DEB w czasie rzeczywistym z AllMySat

Download on the App Store